COSMOS 2251 DEB, 35980

Orbit data source: Space-Track

COSMOS 2251 DEB, 35980 is space debris in LEO originally from a launch on Wed, 16 Jun 1993 UTC launched from the Plesetsk Missile And Space Complex (PKMTR). The debris from Iridium 33, an American commercial communications satellite, has been tracked extensively since its accidental collision with the defunct Russian satellite Cosmos 2251 in 2009. This event, occurring at high speed in low Earth orbit (LEO), generated thousands of pieces of space debris, significantly increasing the risk of further collisions. The Iridium 33 debris cloud has impacted space traffic management and orbital debris mitigation strategies, making it a subject of ongoing study in space situational awareness.

Loading next visibility...
Identifier
35980, 1993-036AVW
Orbit
LEO
Country
Flag of CISCIS
Related business
Manufacturer
Unknown
Mission
Spacecraft
Bus & Motor
Unknown
Mass
Unknown
Launch date (UTC)
1993-06-16 (33 years ago)
Launch vehicle
Unknown
Launch site
Plesetsk Missile And Space Complex (PKMTR)
Object type
Payload
Rocket body
Debris
Shape & HBR
Unknown shape, 0.1 m
Radar Cross Section
Small (<0.1 m²)

Expand to show TLE details & history
Last TLE update: 2 weeks ago

TLE from 2 weeks ago
0 COSMOS 2251 DEB
1 35980U 93036AVW 26020.80584408  .00016723  00000-0  34237-2 0  9993
2 35980  73.9113  47.6120 0051628 176.3812 183.7737 14.59924694620569
Epoch: 2026-01-20T19:20Z
TLE epoch observation values (Epoch: 2026-01-20T19:20:24.928Z)
Latitude
-0.00007°
Longitude
-2.67432°
Altitude
732.487 km
Speed
7.47 km/s
True Right ascension
03h 10m 26s
True Declination
0° 00' 00"
Sunlit
Object was in daylight at epoch
Visualization orbit readout
Latitude
Unknown
Longitude
Unknown
Altitude
Unknown
Speed
Unknown
Apparent Right ascension
Unknown
Apparent Declination
Unknown
Sunlit
N/A
Visualization observer readout
Local Sidereal Time
19:44:38
Azimuth
Unknown
Elevation
Unknown
Doppler factor
Unknown
Orbital elements
Apogee altitude
727.522 km
Perigee altitude
654.529 km
Semi-major axis
7,069.162 km
Eccentricity
0.00516
Inclination
73.9113°
RAAN
47.612°
Arg. of periapsis
176.3812°
True anomaly
183.73501°
Mean anomaly
183.7737°
Eccentric anomaly
183.75433°
Mean motion
3.65167 °/min
Orbital period
98.59 mins
BSTAR
0.0034237
Loading maneuver chart data...
Computing Atmospheric mass density...
Loading historical data...
Loading historical data...
Loading historical data...
Loading historical data...
Loading historical data...
Loading historical data...
Loading historical data...

Documentation

Showing up to 5 results
|